Find OneWeb SL0718

NORAD ID: 56081 Int'l Des: 2023-043 Owner: ONEWEBN Country: UK Constellation: oneweb operational
LEOCIRCULARPOLARONEWEB_TYPE

リアルタイム位置

3D地球を読み込み中...

OneWeb SL0718について

説明を読み込み中...

次回通過

Passes for default location (London). Set your location on the main map for personalized predictions.

高度履歴

Loading altitude history...

軌道要素

1 56081U 23043AM 26124.38267480 .00000088 00000-0 19990-3 0 9992
2 56081 87.8960 267.9361 0001336 104.8454 255.2825 13.15547521150675
Epoch: May 4, 2026 • Age: 12 hours

現在のステータス

高度 1227.0 km
速度 7.24 km/s
衛星直下点 -63.69°S, 91.26°W
打ち上げ日 Mar 26, 2023
運用期間 3.1 years
タイプ internet

技術仕様

分類 Payload
質量 148.00 kg
乾燥質量 140.00 kg
総質量 148.00 kg
長さ 1.30 m
直径 1.00 m
スパン 5.00 m
形状 Trapezoid+2 pan
製造者 ONEWUS
バスタイプ ARROW
フェーズステータス In Orbit
所有者/国 ONEWEBN/UK

Most Searched